Athens, OH

10:54 AM EDT on May 27, 2017 (GMT -0400)
Ohio University

Weather History for KUNI - May, 2014

Change the Weather History Date:

Thursday, May 1, 2014

  Actual Average (KPKB) Record (KPKB)
Temperature  
Mean Temperature 54 °F -  
Max Temperature 59 °F 70 °F 93 °F (1942)
Min Temperature 50 °F 47 °F 30 °F (1978)
Degree Days  
Heating Degree Days 10    
Growing Degree Days 4 (Base 50)    
Moisture  
Dew Point 42 °F    
Average Humidity 64    
Maximum Humidity 94    
Minimum Humidity 40    
Precipitation  
Precipitation 0.00 in - - ()
Sea Level Pressure  
Sea Level Pressure 29.88 in    
Wind  
Wind Speed 7 mph (WSW)    
Max Wind Speed 21 mph    
Max Gust Speed 28 mph    
Visibility 10 miles    
Events      
Averages and records for this station are not official NWS values.
T = Trace of Precipitation, MM = Missing Value Source: NWS Daily Summary

Daily Weather History Graph

Daily Weather History Graph

Search for Another Location

Airport or City:

Trip Planner

Search our weather history database for the weather conditions in past years. The results will help you decide how hot, cold, wet, or windy it might be!

Date:

Astronomy

May. 01, 2014 Rise Set
Actual Time 6:30 AM EDT 8:22 PM EDT
Civil Twilight 6:01 AM EDT 8:51 PM EDT
Nautical Twilight 5:26 AM EDT 9:26 PM EDT
Astronomical Twilight 4:48 AM EDT 10:04 PM EDT
Moon 8:17 AM EDT (5/1) 10:53 PM EDT (5/1)
Length of Visible Light 14h 49m
Length of Day
13h 51m
Waxing Crescent, 6% of the Moon is Illuminated
May 1
Waxing Crescent
May 6
First Quarter
May 14
Full
May 21
Last Quarter
May 28
New

Hourly Weather History & Observations

Time (EDT) Temp. Dew Point Humidity Pressure Visibility Wind Dir Wind Speed Gust Speed Precip Events Conditions
12:15 AM 56.5 °F 54.3 °F 92% 29.85 in 10.0 mi SSW 3.5 mph - N/A   Overcast
12:35 AM 56.3 °F 54.5 °F 94% 29.86 in 10.0 mi South 4.6 mph - N/A   Overcast
12:55 AM 56.3 °F 54.5 °F 94% 29.87 in 10.0 mi South 5.8 mph - N/A   Overcast
1:15 AM 56.3 °F 54.3 °F 93% 29.87 in 10.0 mi South 9.2 mph - N/A   Overcast
1:35 AM 56.3 °F 54.1 °F 92% 29.87 in 10.0 mi South 6.9 mph - N/A   Overcast
1:55 AM 56.3 °F 54.0 °F 92% 29.87 in 10.0 mi SSW 5.8 mph - N/A   Overcast
2:15 AM 56.3 °F 53.1 °F 89% 29.87 in 10.0 mi WSW 6.9 mph - N/A   Overcast
2:35 AM 55.6 °F 51.1 °F 85% 29.86 in 10.0 mi WNW 5.8 mph - N/A   Overcast
2:55 AM 54.9 °F 51.3 °F 88% 29.86 in 10.0 mi WNW 3.5 mph - N/A   Overcast
3:15 AM 54.5 °F 51.4 °F 89% 29.86 in 10.0 mi Calm Calm - N/A   Overcast
3:35 AM 54.1 °F 51.4 °F 91% 29.86 in 10.0 mi Calm Calm - N/A   Overcast
3:55 AM 53.4 °F 50.9 °F 91% 29.84 in 10.0 mi North 3.5 mph - N/A   Overcast
4:15 AM 53.2 °F 49.8 °F 88% 29.85 in 10.0 mi West 4.6 mph - N/A   Overcast
4:35 AM 52.9 °F 49.3 °F 88% 29.86 in 10.0 mi Calm Calm - N/A   Overcast
4:55 AM 52.7 °F 49.3 °F 88% 29.86 in 10.0 mi West 3.5 mph - N/A   Overcast
5:15 AM 52.0 °F 48.4 °F 88% 29.87 in 10.0 mi West 5.8 mph - N/A   Overcast
5:35 AM 51.4 °F 47.3 °F 86% 29.87 in 10.0 mi WSW 3.5 mph - N/A   Overcast
5:55 AM 51.1 °F 46.6 °F 85% 29.88 in 10.0 mi West 4.6 mph - N/A   Overcast
6:15 AM 50.9 °F 45.7 °F 82% 29.88 in 10.0 mi SW 3.5 mph - N/A   Overcast
6:35 AM 50.4 °F 45.5 °F 83% 29.88 in 10.0 mi WSW 3.5 mph - N/A   Overcast
6:55 AM 50.2 °F 45.5 °F 84% 29.88 in 10.0 mi Calm Calm - N/A   Overcast
7:15 AM 50.2 °F 46.4 °F 87% 29.89 in 10.0 mi Calm Calm - N/A   Overcast
7:35 AM 50.2 °F 46.0 °F 86% 29.89 in 10.0 mi Calm Calm - N/A   Overcast
7:55 AM 50.9 °F 46.0 °F 83% 29.90 in 10.0 mi SW 5.8 mph - N/A   Overcast
8:15 AM 51.1 °F 45.1 °F 80% 29.90 in 10.0 mi WSW 8.1 mph - N/A   Overcast
8:35 AM 51.1 °F 44.1 °F 77% 29.90 in 10.0 mi WSW 13.8 mph - N/A   Overcast
9:15 AM 52.3 °F 43.9 °F 73% 29.91 in 10.0 mi WSW 11.5 mph 16.1 mph N/A   Overcast
9:35 AM 52.7 °F 43.2 °F 70% 29.91 in 10.0 mi West 10.4 mph - N/A   Overcast
9:55 AM 53.1 °F 43.7 °F 71% 29.91 in 10.0 mi WSW 8.1 mph - N/A   Overcast
10:15 AM 52.0 °F 42.6 °F 70% 29.91 in 10.0 mi West 8.1 mph - N/A   Overcast
10:35 AM 53.6 °F 43.2 °F 68% 29.91 in 10.0 mi West 10.4 mph 16.1 mph N/A   Overcast
10:55 AM 54.5 °F 42.3 °F 63% 29.91 in 10.0 mi WSW 10.4 mph - N/A   Overcast
11:15 AM 55.2 °F 39.0 °F 54% 29.91 in 10.0 mi West 6.9 mph - N/A   Overcast
11:35 AM 55.9 °F 37.4 °F 50% 29.90 in 10.0 mi WSW 9.2 mph - N/A   Mostly Cloudy
11:55 AM 56.8 °F 37.0 °F 48% 29.90 in 10.0 mi SW 8.1 mph - N/A   Mostly Cloudy
12:15 PM 55.8 °F 37.8 °F 51% 29.90 in 10.0 mi WSW 11.5 mph - N/A   Mostly Cloudy
12:35 PM 57.2 °F 38.5 °F 50% 29.90 in 10.0 mi WSW 11.5 mph 18.4 mph N/A   Mostly Cloudy
12:55 PM 59.0 °F 38.3 °F 46% 29.89 in 10.0 mi SW 11.5 mph 19.6 mph N/A   Mostly Cloudy
1:15 PM 57.4 °F 35.8 °F 44% 29.89 in 10.0 mi WSW 11.5 mph - N/A   Overcast
1:35 PM 57.2 °F 34.9 °F 43% 29.89 in 10.0 mi WSW 20.7 mph 27.6 mph N/A   Overcast
1:55 PM 57.7 °F 36.0 °F 44% 29.89 in 10.0 mi WSW 15.0 mph 21.9 mph N/A   Overcast
2:15 PM 58.1 °F 35.6 °F 43% 29.89 in 10.0 mi SW 12.7 mph 21.9 mph N/A   Overcast
2:35 PM 58.1 °F 36.0 °F 44% 29.89 in 10.0 mi WSW 16.1 mph 23.0 mph N/A   Overcast
2:55 PM 59.0 °F 37.0 °F 44% 29.89 in 10.0 mi West 11.5 mph 15.0 mph N/A   Overcast
3:15 PM 59.5 °F 36.0 °F 41% 29.88 in 10.0 mi WSW 18.4 mph 25.3 mph N/A   Mostly Cloudy
3:35 PM 59.4 °F 35.1 °F 40% 29.88 in 10.0 mi SSW 11.5 mph 25.3 mph N/A   Mostly Cloudy
3:55 PM 58.5 °F 35.6 °F 42% 29.87 in 10.0 mi SSW 15.0 mph 24.2 mph N/A   Mostly Cloudy
4:15 PM 58.3 °F 35.6 °F 43% 29.88 in 10.0 mi WSW 13.8 mph 25.3 mph N/A   Overcast
4:35 PM 58.1 °F 34.7 °F 41% 29.87 in 10.0 mi SW 13.8 mph 23.0 mph N/A   Overcast
5:15 PM 57.6 °F 36.9 °F 46% 29.88 in 10.0 mi WSW 11.5 mph - N/A   Overcast
5:35 PM 58.3 °F 35.4 °F 42% 29.88 in 10.0 mi West 11.5 mph - N/A   Overcast
6:15 PM 57.6 °F 34.7 °F 42% 29.88 in 10.0 mi SW 10.4 mph 16.1 mph N/A   Overcast
6:35 PM 57.4 °F 35.1 °F 43% 29.88 in 10.0 mi SW 9.2 mph 19.6 mph N/A   Overcast
6:55 PM 57.2 °F 34.5 °F 43% 29.88 in 10.0 mi SW 10.4 mph 18.4 mph N/A   Overcast
7:15 PM 56.8 °F 34.9 °F 44% 29.88 in 10.0 mi WSW 13.8 mph 18.4 mph N/A   Overcast
7:35 PM 56.7 °F 35.1 °F 44% 29.89 in 10.0 mi SW 6.9 mph - N/A   Overcast
7:55 PM 55.9 °F 35.8 °F 47% 29.89 in 10.0 mi WSW 8.1 mph - N/A   Overcast
8:15 PM 55.8 °F 35.4 °F 46% 29.89 in 10.0 mi SW 3.5 mph - N/A   Overcast
8:35 PM 55.4 °F 35.1 °F 46% 29.89 in 10.0 mi SW 5.8 mph - N/A   Overcast
8:55 PM 54.9 °F 34.9 °F 47% 29.89 in 10.0 mi SW 5.8 mph - N/A   Overcast
9:15 PM 54.9 °F 34.9 °F 47% 29.89 in 10.0 mi SSW 3.5 mph - N/A   Overcast
9:35 PM 54.1 °F 35.6 °F 50% 29.89 in 10.0 mi SW 4.6 mph - N/A   Overcast
9:55 PM 54.5 °F 35.6 °F 49% 29.89 in 10.0 mi SW 4.6 mph - N/A   Overcast
10:15 PM 54.0 °F 35.4 °F 50% 29.89 in 10.0 mi SW 5.8 mph - N/A   Overcast
10:35 PM 54.0 °F 35.6 °F 50% 29.89 in 10.0 mi SSW 3.5 mph - N/A   Overcast
10:55 PM 53.1 °F 37.0 °F 55% 29.89 in 10.0 mi Calm Calm - N/A   Overcast
11:15 PM 53.2 °F 36.7 °F 53% 29.89 in 10.0 mi SSW 3.5 mph - N/A   Overcast
11:35 PM 53.1 °F 36.3 °F 53% 29.89 in 10.0 mi SSW 3.5 mph - N/A   Overcast
11:55 PM 52.7 °F 36.3 °F 54% 29.89 in 10.0 mi SSW 3.5 mph - N/A   Overcast